Year,Month,Day,Hour,Minute,Value (Times are PST for temperature in C)
2006,06,29,00,00,13.70
2006,06,29,00,01,13.60
2006,06,29,00,02,13.60
2006,06,29,00,03,13.60
2006,06,29,00,04,13.60
2006,06,29,00,05,13.60
2006,06,29,00,06,13.60
2006,06,29,00,07,13.60
2006,06,29,00,08,13.60
2006,06,29,00,09,13.50
2006,06,29,00,10,13.50
2006,06,29,00,11,13.50
2006,06,29,00,12,13.50
2006,06,29,01,02,12.60
2006,06,29,01,03,12.60
2006,06,29,01,04,12.60
2006,06,29,01,05,12.60
2006,06,29,01,06,12.50
2006,06,29,01,07,12.50
2006,06,29,01,08,12.50
2006,06,29,01,09,12.50
2006,06,29,01,10,12.50
2006,06,29,01,11,12.50
2006,06,29,01,12,12.50
2006,06,29,01,13,12.50
2006,06,29,01,14,12.50
2006,06,29,01,15,12.50
2006,06,29,01,16,12.50
2006,06,29,01,17,12.50
2006,06,29,01,18,12.50
2006,06,29,01,19,12.40
2006,06,29,01,20,12.40
2006,06,29,01,21,12.40
2006,06,29,01,22,12.40
2006,06,29,01,23,12.40
2006,06,29,01,24,12.40
2006,06,29,01,25,12.40
2006,06,29,01,26,12.40
2006,06,29,01,27,12.40
2006,06,29,01,28,12.50
2006,06,29,01,29,12.50
2006,06,29,01,30,12.50
2006,06,29,01,31,12.50
2006,06,29,01,32,12.50
2006,06,29,01,33,12.50
2006,06,29,01,34,12.50
2006,06,29,01,35,12.50
2006,06,29,01,36,12.50
2006,06,29,01,37,12.40
2006,06,29,01,38,12.40
2006,06,29,01,39,12.40
2006,06,29,01,40,12.40
2006,06,29,01,41,12.40
2006,06,29,01,42,12.30
2006,06,29,01,43,12.30
2006,06,29,01,44,12.30
2006,06,29,01,45,12.30
2006,06,29,01,46,12.30
2006,06,29,01,47,12.30
2006,06,29,01,48,12.30
2006,06,29,01,49,12.30
2006,06,29,01,50,12.30
2006,06,29,01,51,12.30
2006,06,29,01,52,12.30
2006,06,29,01,53,12.30
2006,06,29,01,54,12.30
2006,06,29,01,55,12.30
2006,06,29,01,56,12.30
2006,06,29,01,57,12.30
2006,06,29,01,58,12.30
2006,06,29,01,59,12.30
2006,06,29,02,00,12.20
2006,06,29,02,01,12.20
2006,06,29,02,02,12.20
2006,06,29,02,03,12.20
2006,06,29,02,04,12.20
2006,06,29,02,05,12.20
2006,06,29,02,06,12.20
2006,06,29,02,07,12.10
2006,06,29,02,08,12.10
2006,06,29,02,09,12.10
2006,06,29,02,10,12.10
2006,06,29,02,11,12.10
2006,06,29,02,12,12.10
2006,06,29,02,13,12.10
2006,06,29,02,14,12.10
2006,06,29,02,15,12.10
2006,06,29,02,16,12.10
2006,06,29,02,17,12.10
2006,06,29,02,18,12.10
2006,06,29,02,19,12.10
2006,06,29,02,20,12.10
2006,06,29,02,21,12.10
2006,06,29,02,22,12.10
2006,06,29,02,23,12.10
2006,06,29,02,24,12.10
2006,06,29,02,25,12.10
2006,06,29,02,26,12.10
2006,06,29,02,27,12.10
2006,06,29,02,28,12.10
2006,06,29,02,29,12.00
2006,06,29,02,30,12.00
2006,06,29,02,31,12.00
2006,06,29,02,32,12.00
2006,06,29,02,33,11.90
2006,06,29,02,34,11.90
2006,06,29,02,35,11.90
2006,06,29,02,36,11.80
2006,06,29,02,37,11.80
2006,06,29,02,38,11.80
2006,06,29,02,39,11.80
2006,06,29,02,40,11.80
2006,06,29,02,41,11.80
2006,06,29,02,42,11.80
2006,06,29,02,43,11.80
2006,06,29,02,44,11.80
2006,06,29,02,45,11.80
2006,06,29,02,46,11.80
2006,06,29,02,47,11.80
2006,06,29,02,48,11.70
2006,06,29,02,49,11.70
2006,06,29,02,50,11.70
2006,06,29,02,51,11.70
2006,06,29,02,52,11.60
2006,06,29,02,53,11.60
2006,06,29,02,54,11.60
2006,06,29,02,55,11.60
2006,06,29,02,56,11.60
2006,06,29,02,57,11.60
2006,06,29,02,58,11.60
2006,06,29,02,59,11.60
2006,06,29,03,00,11.60
2006,06,29,03,01,11.60
2006,06,29,03,02,11.60
2006,06,29,03,03,11.60
2006,06,29,03,04,11.50
2006,06,29,03,05,11.40
2006,06,29,03,06,11.40
2006,06,29,03,07,11.40
2006,06,29,03,08,11.40
2006,06,29,03,09,11.40
2006,06,29,03,10,11.40
2006,06,29,03,11,11.40
2006,06,29,03,12,11.40
2006,06,29,03,13,11.40
2006,06,29,03,14,11.40
2006,06,29,03,15,11.40
2006,06,29,03,16,11.40
2006,06,29,03,17,11.40
2006,06,29,03,18,11.40
2006,06,29,03,19,11.40
2006,06,29,03,20,11.40
2006,06,29,03,21,11.40
2006,06,29,03,22,11.40
2006,06,29,03,23,11.40
2006,06,29,03,24,11.40
2006,06,29,03,25,11.40
2006,06,29,03,26,11.40
2006,06,29,03,27,11.40
2006,06,29,03,28,11.40
2006,06,29,03,29,11.40
2006,06,29,03,30,11.30
2006,06,29,03,31,11.30
2006,06,29,03,32,11.30
2006,06,29,03,33,11.30
2006,06,29,03,34,11.30
2006,06,29,03,35,11.30
2006,06,29,03,36,11.30
2006,06,29,03,37,11.20
2006,06,29,03,38,11.20
2006,06,29,03,39,11.20
2006,06,29,03,40,11.20
2006,06,29,03,41,11.20
2006,06,29,03,42,11.20
2006,06,29,03,43,11.20
2006,06,29,03,44,11.20
2006,06,29,03,45,11.20
2006,06,29,03,46,11.20
2006,06,29,03,47,11.20
2006,06,29,03,48,11.10
2006,06,29,03,49,11.10
2006,06,29,03,50,11.10
2006,06,29,03,51,11.10
2006,06,29,03,52,11.10
2006,06,29,03,53,11.10
2006,06,29,03,54,11.10
2006,06,29,03,55,11.10
2006,06,29,03,56,11.10
2006,06,29,03,57,11.10
2006,06,29,03,58,11.00
2006,06,29,03,59,10.90
2006,06,29,04,00,10.90
2006,06,29,04,01,10.90
2006,06,29,04,02,10.90
2006,06,29,04,03,10.90
2006,06,29,04,04,10.90
2006,06,29,04,05,10.90
2006,06,29,04,06,10.90
2006,06,29,04,07,10.90
2006,06,29,04,08,10.90
2006,06,29,04,09,10.90
2006,06,29,04,10,10.90
2006,06,29,04,11,10.90
2006,06,29,04,12,10.90
2006,06,29,04,13,10.90
2006,06,29,04,14,10.90
2006,06,29,04,15,10.90
2006,06,29,04,16,10.90
2006,06,29,04,17,10.90
2006,06,29,04,18,10.90
2006,06,29,04,19,10.80
2006,06,29,04,20,10.80
2006,06,29,04,21,10.80
2006,06,29,04,22,10.80
2006,06,29,04,23,10.80
2006,06,29,04,24,10.80
2006,06,29,04,25,10.70
2006,06,29,04,26,10.70
2006,06,29,04,27,10.70
2006,06,29,04,28,10.70
2006,06,29,04,29,10.70
2006,06,29,04,30,10.70
2006,06,29,04,31,10.70
2006,06,29,04,32,10.70
2006,06,29,04,33,10.70
2006,06,29,04,34,10.70
2006,06,29,04,35,10.70
2006,06,29,04,36,10.70
2006,06,29,04,37,10.70
2006,06,29,04,38,10.70
2006,06,29,04,39,10.70
2006,06,29,04,40,10.70
2006,06,29,04,41,10.70
2006,06,29,04,42,10.80
2006,06,29,04,43,10.80
2006,06,29,04,44,10.80
2006,06,29,04,45,10.80
2006,06,29,04,46,10.80
2006,06,29,04,47,10.80
2006,06,29,04,48,10.80
2006,06,29,04,49,10.80
2006,06,29,04,50,10.80
2006,06,29,04,51,10.80
2006,06,29,04,52,10.80
2006,06,29,04,53,10.80
2006,06,29,04,54,10.90
2006,06,29,04,55,10.90
2006,06,29,04,56,10.90
2006,06,29,04,57,10.90
2006,06,29,04,58,10.90
2006,06,29,04,59,10.90
2006,06,29,05,00,10.90
2006,06,29,05,01,10.90
2006,06,29,05,02,10.90
2006,06,29,05,03,10.90
2006,06,29,05,04,10.90
2006,06,29,05,05,10.90
2006,06,29,05,06,10.90
2006,06,29,05,07,10.90
2006,06,29,05,08,10.90
2006,06,29,05,09,10.90
2006,06,29,05,10,10.90
2006,06,29,05,11,10.90
2006,06,29,05,12,10.90
2006,06,29,05,13,10.90
2006,06,29,05,14,10.90
2006,06,29,05,15,10.90
2006,06,29,05,16,10.90
2006,06,29,05,17,10.90
2006,06,29,05,18,10.90
2006,06,29,05,19,10.90
2006,06,29,05,20,10.80
2006,06,29,05,21,10.80
2006,06,29,05,22,10.80
2006,06,29,05,23,10.80
2006,06,29,05,24,10.80
2006,06,29,05,25,10.80
2006,06,29,05,26,10.80
2006,06,29,05,27,10.80
2006,06,29,05,28,10.80
2006,06,29,05,29,10.80
2006,06,29,05,30,10.70
2006,06,29,05,31,10.70
2006,06,29,05,32,10.70
2006,06,29,05,33,10.70
2006,06,29,05,34,10.70
2006,06,29,05,35,10.70
2006,06,29,05,36,10.70
2006,06,29,05,37,10.70
2006,06,29,05,38,10.70
2006,06,29,05,39,10.70
2006,06,29,05,40,10.70
2006,06,29,05,41,10.70
2006,06,29,05,42,10.70
2006,06,29,05,43,10.70
2006,06,29,05,44,10.70
2006,06,29,05,45,10.70
2006,06,29,05,46,10.70
2006,06,29,05,47,10.70
2006,06,29,05,48,10.70
2006,06,29,05,49,10.80
2006,06,29,05,50,10.80
2006,06,29,05,51,10.80
2006,06,29,05,52,10.80
2006,06,29,05,53,10.80
2006,06,29,05,54,10.80
2006,06,29,05,55,10.80
2006,06,29,05,56,10.80
2006,06,29,05,57,10.80
2006,06,29,05,58,10.90
2006,06,29,05,59,10.90
2006,06,29,06,00,10.90
2006,06,29,06,01,10.90
2006,06,29,06,02,10.90
2006,06,29,06,03,10.90
2006,06,29,06,04,10.90
2006,06,29,06,05,10.90
2006,06,29,06,06,10.90
2006,06,29,06,07,10.90
2006,06,29,06,08,10.90
2006,06,29,06,09,10.90
2006,06,29,06,10,10.90
2006,06,29,06,11,11.00
2006,06,29,06,12,11.10
2006,06,29,06,13,11.10
2006,06,29,06,14,11.10
2006,06,29,06,15,11.10
2006,06,29,06,16,11.10
2006,06,29,06,17,11.10
2006,06,29,06,18,11.20
2006,06,29,06,19,11.20
2006,06,29,06,20,11.30
2006,06,29,06,21,11.40
2006,06,29,06,22,11.40
2006,06,29,06,23,11.40
2006,06,29,06,24,11.50
2006,06,29,06,25,11.60
2006,06,29,06,26,11.60
2006,06,29,06,27,11.60
2006,06,29,06,28,11.60
2006,06,29,06,29,11.70
2006,06,29,06,30,11.70
2006,06,29,06,31,11.70
2006,06,29,06,32,11.80
2006,06,29,06,33,11.80
2006,06,29,06,34,11.80
2006,06,29,06,35,11.80
2006,06,29,06,36,11.90
2006,06,29,06,37,11.90
2006,06,29,06,38,11.90
2006,06,29,06,39,12.00
2006,06,29,06,40,12.00
2006,06,29,06,41,12.00
2006,06,29,06,42,12.10
2006,06,29,06,43,12.10
2006,06,29,06,44,12.20
2006,06,29,06,45,12.20
2006,06,29,06,46,12.20
2006,06,29,06,47,12.30
2006,06,29,06,48,12.30
2006,06,29,06,49,12.30
2006,06,29,06,50,12.30
2006,06,29,06,51,12.30
2006,06,29,06,52,12.40
2006,06,29,06,53,12.40
2006,06,29,06,54,12.50
2006,06,29,06,55,12.50
2006,06,29,06,56,12.50
2006,06,29,06,57,12.60
2006,06,29,06,58,12.60
2006,06,29,06,59,12.70
2006,06,29,07,00,12.70
2006,06,29,07,01,12.80
2006,06,29,07,02,12.90
2006,06,29,07,03,12.90
2006,06,29,07,04,13.00
2006,06,29,07,05,13.00
2006,06,29,07,06,13.10
2006,06,29,07,07,13.20
2006,06,29,07,08,13.30
2006,06,29,07,09,13.40
2006,06,29,07,10,13.50
2006,06,29,07,11,13.50
2006,06,29,07,12,13.60
2006,06,29,07,13,13.60
2006,06,29,07,14,13.70
2006,06,29,07,15,13.70
2006,06,29,07,16,13.80
2006,06,29,07,17,13.90
2006,06,29,07,18,13.90
2006,06,29,07,19,14.00
2006,06,29,07,20,14.10
2006,06,29,07,21,14.10
2006,06,29,07,22,14.20
2006,06,29,07,23,14.20
2006,06,29,07,24,14.20
2006,06,29,07,25,14.30
2006,06,29,07,26,14.30
2006,06,29,07,27,14.30
2006,06,29,07,28,14.40
2006,06,29,07,29,14.40
2006,06,29,07,30,14.40
2006,06,29,07,31,14.50
2006,06,29,07,32,14.50
2006,06,29,07,33,14.60
2006,06,29,07,34,14.60
2006,06,29,07,35,14.70
2006,06,29,07,36,14.70
2006,06,29,07,37,14.70
2006,06,29,07,38,14.80
2006,06,29,07,39,14.80
2006,06,29,07,40,14.80
2006,06,29,07,41,14.80
2006,06,29,07,42,14.80
2006,06,29,07,43,14.80
2006,06,29,07,44,14.80
2006,06,29,07,45,14.80
2006,06,29,07,46,14.80
2006,06,29,07,47,14.80
2006,06,29,07,48,14.80
2006,06,29,07,49,14.80
2006,06,29,07,50,14.80
2006,06,29,07,51,14.80
2006,06,29,07,52,14.80
2006,06,29,07,53,14.80
2006,06,29,07,54,14.90
2006,06,29,07,55,14.90
2006,06,29,07,56,15.00
2006,06,29,07,57,15.10
2006,06,29,07,58,15.20
2006,06,29,07,59,15.30
2006,06,29,08,00,15.30
2006,06,29,08,01,15.30
2006,06,29,08,02,15.40
2006,06,29,08,03,15.50
2006,06,29,08,04,15.50
2006,06,29,08,05,15.50
2006,06,29,08,06,15.50
2006,06,29,08,07,15.50
2006,06,29,08,08,15.60
2006,06,29,08,09,15.70
2006,06,29,08,10,15.70
2006,06,29,08,11,15.80
2006,06,29,08,12,15.80
2006,06,29,08,13,15.80
2006,06,29,08,14,15.80
2006,06,29,08,15,15.80
2006,06,29,08,16,15.80
2006,06,29,08,17,16.00
2006,06,29,08,18,16.10
2006,06,29,08,19,16.20
2006,06,29,08,20,16.20
2006,06,29,08,21,16.20
2006,06,29,08,22,16.30
2006,06,29,08,23,16.40
2006,06,29,08,24,16.40
2006,06,29,08,25,16.40
2006,06,29,08,26,16.40
2006,06,29,08,27,16.40
2006,06,29,08,28,16.40
2006,06,29,08,29,16.40
2006,06,29,08,30,16.40
2006,06,29,08,31,16.30
2006,06,29,08,32,16.30
2006,06,29,08,33,16.20
2006,06,29,08,34,16.20
2006,06,29,08,35,16.20
2006,06,29,08,36,16.20
2006,06,29,08,37,16.20
2006,06,29,08,38,16.20
2006,06,29,08,39,16.20
2006,06,29,08,40,16.30
2006,06,29,08,41,16.40
2006,06,29,08,42,16.40
2006,06,29,08,43,16.60
2006,06,29,08,44,16.70
2006,06,29,08,45,16.80
2006,06,29,08,46,16.80
2006,06,29,08,47,17.00
2006,06,29,08,48,17.00
2006,06,29,08,49,17.10
2006,06,29,08,50,17.30
2006,06,29,08,51,17.30
2006,06,29,08,52,17.30
2006,06,29,08,53,17.30
2006,06,29,08,54,17.20
2006,06,29,08,55,17.20
2006,06,29,08,56,17.30
2006,06,29,08,57,17.30
2006,06,29,08,58,17.30
2006,06,29,08,59,17.30
2006,06,29,09,00,17.30
2006,06,29,09,01,17.30
2006,06,29,09,02,17.30
2006,06,29,09,03,17.30
2006,06,29,09,04,17.30
2006,06,29,09,05,17.30
2006,06,29,09,06,17.30
2006,06,29,09,07,17.40
2006,06,29,09,08,17.40
2006,06,29,09,09,17.50
2006,06,29,09,10,17.50
2006,06,29,09,11,17.50
2006,06,29,09,12,17.60
2006,06,29,09,13,17.60
2006,06,29,09,14,17.70
2006,06,29,09,15,17.80
2006,06,29,09,16,17.70
2006,06,29,09,17,17.80
2006,06,29,09,18,17.70
2006,06,29,09,19,17.70
2006,06,29,09,20,17.60
2006,06,29,09,21,17.60
2006,06,29,09,22,17.50
2006,06,29,09,23,17.50
2006,06,29,09,24,17.50
2006,06,29,09,25,17.50
2006,06,29,09,26,17.50
2006,06,29,09,27,17.40
2006,06,29,09,28,17.30
2006,06,29,09,29,17.20
2006,06,29,09,30,17.10
2006,06,29,09,31,17.00
2006,06,29,09,32,16.90
2006,06,29,09,33,16.90
2006,06,29,09,34,16.80
2006,06,29,09,35,16.80
2006,06,29,09,36,16.70
2006,06,29,09,37,16.70
2006,06,29,09,38,16.60
2006,06,29,09,39,16.60
2006,06,29,09,40,16.60
2006,06,29,09,41,16.60
2006,06,29,09,42,16.70
2006,06,29,09,43,16.70
2006,06,29,09,44,16.70
2006,06,29,09,45,16.70
2006,06,29,09,46,16.80
2006,06,29,09,47,16.80
2006,06,29,09,48,16.70
2006,06,29,09,49,16.80
2006,06,29,09,50,16.80
2006,06,29,09,51,16.80
2006,06,29,09,52,16.90
2006,06,29,09,53,16.90
2006,06,29,09,54,17.00
2006,06,29,09,55,16.90
2006,06,29,09,56,17.00
2006,06,29,09,57,17.00
2006,06,29,09,58,17.10
2006,06,29,09,59,17.10
2006,06,29,10,00,17.00
2006,06,29,10,01,17.00
2006,06,29,10,02,16.90
2006,06,29,10,03,16.80
2006,06,29,10,04,16.70
2006,06,29,10,05,16.70
2006,06,29,10,06,16.70
2006,06,29,10,07,16.70
2006,06,29,10,08,16.70
2006,06,29,10,09,16.80
2006,06,29,10,10,16.90
2006,06,29,10,11,17.00
2006,06,29,10,12,17.10
2006,06,29,10,13,17.20
2006,06,29,10,14,17.30
2006,06,29,10,15,17.40
2006,06,29,10,16,17.40
2006,06,29,10,17,17.40
2006,06,29,10,18,17.50
2006,06,29,10,19,17.50
2006,06,29,10,20,17.60
2006,06,29,10,21,17.60
2006,06,29,10,22,17.60
2006,06,29,10,23,17.60
2006,06,29,10,24,17.50
2006,06,29,10,25,17.50
2006,06,29,10,26,17.40
2006,06,29,10,27,17.50
2006,06,29,10,28,17.50
2006,06,29,10,29,17.60
2006,06,29,10,30,17.70
2006,06,29,10,31,17.70
2006,06,29,10,32,17.70
2006,06,29,10,33,17.80
2006,06,29,10,34,17.90
2006,06,29,10,35,17.90
2006,06,29,10,36,17.90
2006,06,29,10,37,18.00
2006,06,29,10,38,18.00
2006,06,29,10,39,18.10
2006,06,29,10,40,18.20
2006,06,29,10,41,18.30
2006,06,29,10,42,18.30
2006,06,29,10,43,18.40
2006,06,29,10,44,18.40
2006,06,29,10,45,18.40
2006,06,29,10,46,18.40
2006,06,29,10,47,18.40
2006,06,29,10,48,18.40
2006,06,29,10,49,18.40
2006,06,29,10,50,18.40
2006,06,29,10,51,18.40
2006,06,29,10,52,18.40
2006,06,29,10,53,18.40
2006,06,29,10,54,18.40
2006,06,29,10,55,18.30
2006,06,29,10,56,18.30
2006,06,29,10,57,18.40
2006,06,29,10,58,18.40
2006,06,29,10,59,18.40
2006,06,29,11,00,18.40
2006,06,29,11,01,18.50
2006,06,29,11,02,18.50
2006,06,29,11,03,18.50
2006,06,29,11,04,18.40
2006,06,29,11,05,18.30
2006,06,29,11,06,18.20
2006,06,29,11,07,18.00
2006,06,29,11,08,17.90
2006,06,29,11,09,17.80
2006,06,29,11,10,17.80
2006,06,29,11,11,17.90
2006,06,29,11,12,17.90
2006,06,29,11,13,18.10
2006,06,29,11,14,18.20
2006,06,29,11,15,18.30
2006,06,29,11,16,18.40
2006,06,29,11,17,18.30
2006,06,29,11,18,18.30
2006,06,29,11,19,18.30
2006,06,29,11,20,18.20
2006,06,29,11,21,18.20
2006,06,29,11,22,18.20
2006,06,29,11,23,18.20
2006,06,29,11,24,18.10
2006,06,29,11,25,18.00
2006,06,29,11,26,17.90
2006,06,29,11,27,18.00
2006,06,29,11,28,18.20
2006,06,29,11,29,18.30
2006,06,29,11,30,18.50
2006,06,29,11,31,18.60
2006,06,29,11,32,18.70
2006,06,29,11,33,18.80
2006,06,29,11,34,18.90
2006,06,29,11,35,19.10
2006,06,29,11,36,19.10
2006,06,29,11,37,19.10
2006,06,29,11,38,19.00
2006,06,29,11,39,18.90
2006,06,29,11,40,18.90
2006,06,29,11,41,19.00
2006,06,29,11,42,19.10
2006,06,29,11,43,19.20
2006,06,29,11,44,19.30
2006,06,29,11,45,19.40
2006,06,29,11,46,19.50
2006,06,29,11,47,19.60
2006,06,29,11,48,19.60
2006,06,29,11,49,19.50
2006,06,29,11,50,19.50
2006,06,29,11,51,19.50
2006,06,29,11,52,19.40
2006,06,29,11,53,19.50
2006,06,29,11,54,19.60
2006,06,29,11,55,19.70
2006,06,29,11,56,19.70
2006,06,29,11,57,19.80
2006,06,29,11,58,19.90
2006,06,29,11,59,19.90
2006,06,29,12,00,19.90
2006,06,29,12,01,19.90
2006,06,29,12,02,19.90
2006,06,29,12,03,19.90
2006,06,29,12,04,20.00
2006,06,29,12,05,20.10
2006,06,29,12,06,20.10
2006,06,29,12,07,20.00
2006,06,29,12,08,19.80
2006,06,29,12,09,19.80
2006,06,29,12,10,19.70
2006,06,29,12,11,19.60
2006,06,29,12,12,19.60
2006,06,29,12,13,19.60
2006,06,29,12,14,19.60
2006,06,29,12,15,19.70
2006,06,29,12,16,19.60
2006,06,29,12,17,19.60
2006,06,29,12,18,19.60
2006,06,29,12,19,19.70
2006,06,29,12,20,19.80
2006,06,29,12,21,19.90
2006,06,29,12,22,20.10
2006,06,29,12,23,20.30
2006,06,29,12,24,20.50
2006,06,29,12,25,20.50
2006,06,29,12,26,20.40
2006,06,29,12,27,20.20
2006,06,29,12,28,20.20
2006,06,29,12,29,20.20
2006,06,29,12,30,20.10
2006,06,29,12,31,20.10
2006,06,29,12,32,20.10
2006,06,29,12,33,20.20
2006,06,29,12,34,20.20
2006,06,29,12,35,20.20
2006,06,29,12,36,20.10
2006,06,29,12,37,19.90
2006,06,29,12,38,19.90
2006,06,29,12,39,19.90
2006,06,29,12,40,19.90
2006,06,29,12,41,19.90
2006,06,29,12,42,19.90
2006,06,29,12,43,19.90
2006,06,29,12,44,19.90
2006,06,29,12,45,19.90
2006,06,29,12,46,19.90
2006,06,29,12,47,20.00
2006,06,29,12,48,20.00
2006,06,29,12,49,19.90
2006,06,29,12,50,20.00
2006,06,29,12,51,20.10
2006,06,29,12,52,20.10
2006,06,29,12,53,20.00
2006,06,29,12,54,19.90
2006,06,29,12,55,19.80
2006,06,29,12,56,19.70
2006,06,29,12,57,19.60
2006,06,29,12,58,19.60
2006,06,29,12,59,19.50
2006,06,29,13,00,19.50
2006,06,29,13,01,19.60
2006,06,29,13,02,19.60
2006,06,29,13,03,19.60
2006,06,29,13,04,19.60
2006,06,29,13,05,19.70
2006,06,29,13,06,19.90
2006,06,29,13,07,19.90
2006,06,29,13,08,20.00
2006,06,29,13,09,20.00
2006,06,29,13,10,19.90
2006,06,29,13,11,19.90
2006,06,29,13,12,19.90
2006,06,29,13,13,19.90
2006,06,29,13,14,19.90
2006,06,29,13,15,19.90
2006,06,29,13,16,19.90
2006,06,29,13,17,19.90
2006,06,29,13,18,19.90
2006,06,29,13,19,20.00
2006,06,29,13,20,20.10
2006,06,29,13,21,20.10
2006,06,29,13,22,20.10
2006,06,29,13,23,20.10
2006,06,29,13,24,20.10
2006,06,29,13,25,20.20
2006,06,29,13,26,20.20
2006,06,29,13,27,20.30
2006,06,29,13,28,20.40
2006,06,29,13,29,20.50
2006,06,29,13,30,20.50
2006,06,29,13,31,20.40
2006,06,29,13,32,20.30
2006,06,29,13,33,20.20
2006,06,29,13,34,20.20
2006,06,29,13,35,20.20
2006,06,29,13,36,20.20
2006,06,29,13,37,20.00
2006,06,29,13,38,19.80
2006,06,29,13,39,19.80
2006,06,29,13,40,19.80
2006,06,29,13,41,19.70
2006,06,29,13,42,19.60
2006,06,29,13,43,19.60
2006,06,29,13,44,19.70
2006,06,29,13,45,19.60
2006,06,29,13,46,19.60
2006,06,29,13,47,19.60
2006,06,29,13,48,19.60
2006,06,29,13,49,19.70
2006,06,29,13,50,19.70
2006,06,29,13,51,19.70
2006,06,29,13,52,19.80
2006,06,29,13,53,19.90
2006,06,29,13,54,19.90
2006,06,29,13,55,20.00
2006,06,29,13,56,20.00
2006,06,29,13,57,19.90
2006,06,29,13,58,19.90
2006,06,29,13,59,19.90
2006,06,29,14,00,19.90
2006,06,29,14,01,20.00
2006,06,29,14,02,20.10
2006,06,29,14,03,20.10
2006,06,29,14,04,20.10
2006,06,29,14,05,20.10
2006,06,29,14,06,20.10
2006,06,29,14,07,20.20
2006,06,29,14,08,20.30
2006,06,29,14,09,20.30
2006,06,29,14,10,20.40
2006,06,29,14,11,20.40
2006,06,29,14,12,20.40
2006,06,29,14,13,20.50
2006,06,29,14,14,20.50
2006,06,29,14,15,20.60
2006,06,29,14,16,20.60
2006,06,29,14,17,20.60
2006,06,29,14,18,20.60
2006,06,29,14,19,20.70
2006,06,29,14,20,20.60
2006,06,29,14,21,20.70
2006,06,29,14,22,20.80
2006,06,29,14,23,20.90
2006,06,29,14,24,20.90
2006,06,29,14,25,21.00
2006,06,29,14,26,21.10
2006,06,29,14,27,21.20
2006,06,29,14,28,21.30
2006,06,29,14,29,21.40
2006,06,29,14,30,21.60
2006,06,29,14,31,21.70
2006,06,29,14,32,21.80
2006,06,29,14,33,21.90
2006,06,29,14,34,22.00
2006,06,29,14,35,22.00
2006,06,29,14,36,22.10
2006,06,29,14,37,22.00
2006,06,29,14,38,22.00
2006,06,29,14,39,22.00
2006,06,29,14,40,21.90
2006,06,29,14,41,21.80
2006,06,29,14,42,21.80
2006,06,29,14,43,21.80
2006,06,29,14,44,21.90
2006,06,29,14,45,22.10
2006,06,29,14,46,22.20
2006,06,29,14,47,22.20
2006,06,29,14,48,22.30
2006,06,29,14,49,22.20
2006,06,29,14,50,22.20
2006,06,29,14,51,22.20
2006,06,29,14,52,22.10
2006,06,29,14,53,22.10
2006,06,29,14,54,22.20
2006,06,29,14,55,22.10
2006,06,29,14,56,22.10
2006,06,29,14,57,22.10
2006,06,29,14,58,22.00
2006,06,29,14,59,22.10
2006,06,29,15,00,22.10
2006,06,29,15,01,22.10
2006,06,29,15,02,22.20
2006,06,29,15,03,22.20
2006,06,29,15,04,22.10
2006,06,29,15,05,22.00
2006,06,29,15,06,22.00
2006,06,29,15,07,22.00
2006,06,29,15,08,22.20
2006,06,29,15,09,22.30
2006,06,29,15,10,22.20
2006,06,29,15,11,22.20
2006,06,29,15,12,22.20
2006,06,29,15,13,22.20
2006,06,29,15,14,22.20
2006,06,29,15,15,22.20
2006,06,29,15,16,22.30
2006,06,29,15,17,22.30
2006,06,29,15,18,22.30
2006,06,29,15,19,22.30
2006,06,29,15,20,22.40
2006,06,29,15,21,22.40
2006,06,29,15,22,22.50
2006,06,29,15,23,22.50
2006,06,29,15,24,22.60
2006,06,29,15,25,22.60
2006,06,29,15,26,22.50
2006,06,29,15,27,22.50
2006,06,29,15,28,22.50
2006,06,29,15,29,22.40
2006,06,29,15,30,22.50
2006,06,29,15,31,22.40
2006,06,29,15,32,22.30
2006,06,29,15,33,22.30
2006,06,29,15,34,22.30
2006,06,29,15,35,22.40
2006,06,29,15,36,22.40
2006,06,29,15,37,22.40
2006,06,29,15,38,22.40
2006,06,29,15,39,22.30
2006,06,29,15,40,22.40
2006,06,29,15,41,22.40
2006,06,29,15,42,22.40
2006,06,29,15,43,22.50
2006,06,29,15,44,22.50
2006,06,29,15,45,22.50
2006,06,29,15,46,22.50
2006,06,29,15,47,22.50
2006,06,29,15,48,22.50
2006,06,29,15,49,22.50
2006,06,29,15,50,22.50
2006,06,29,15,51,22.60
2006,06,29,15,52,22.60
2006,06,29,15,53,22.60
2006,06,29,15,54,22.50
2006,06,29,15,55,22.50
2006,06,29,15,56,22.60
2006,06,29,15,57,22.60
2006,06,29,15,58,22.70
2006,06,29,15,59,22.70
2006,06,29,16,00,22.80
2006,06,29,16,01,22.80
2006,06,29,16,02,22.80
2006,06,29,16,03,22.80
2006,06,29,16,04,22.80
2006,06,29,16,05,22.80
2006,06,29,16,06,22.90
2006,06,29,16,07,22.90
2006,06,29,16,08,22.90
2006,06,29,16,09,23.00
2006,06,29,16,10,23.00
2006,06,29,16,11,22.90
2006,06,29,16,12,23.00
2006,06,29,16,13,23.10
2006,06,29,16,14,23.00
2006,06,29,16,15,22.90
2006,06,29,16,16,23.00
2006,06,29,16,17,23.10
2006,06,29,16,18,23.20
2006,06,29,16,19,23.30
2006,06,29,16,20,23.40
2006,06,29,16,21,23.50
2006,06,29,16,22,23.60
2006,06,29,16,23,23.70
2006,06,29,16,24,23.60
2006,06,29,16,25,23.50
2006,06,29,16,26,23.40
2006,06,29,16,27,23.40
2006,06,29,16,28,23.30
2006,06,29,16,29,23.30
2006,06,29,16,30,23.10
2006,06,29,16,31,22.90
2006,06,29,16,32,22.90
2006,06,29,16,33,22.90
2006,06,29,16,34,22.90
2006,06,29,16,35,23.00
2006,06,29,16,36,23.10
2006,06,29,16,37,23.10
2006,06,29,16,38,23.10
2006,06,29,16,39,23.10
2006,06,29,16,40,23.10
2006,06,29,16,41,23.10
2006,06,29,16,42,23.10
2006,06,29,16,43,23.20
2006,06,29,16,44,23.10
2006,06,29,16,45,23.00
2006,06,29,16,46,22.90
2006,06,29,16,47,22.80
2006,06,29,16,48,22.70
2006,06,29,16,49,22.50
2006,06,29,16,50,22.30
2006,06,29,16,51,22.10
2006,06,29,16,52,22.00
2006,06,29,16,53,22.00
2006,06,29,16,54,21.90
2006,06,29,16,55,21.90
2006,06,29,16,56,21.70
2006,06,29,16,57,21.50
2006,06,29,16,58,21.30
2006,06,29,16,59,21.30
2006,06,29,17,00,21.10
2006,06,29,17,01,21.10
2006,06,29,17,02,21.10
2006,06,29,17,03,21.00
2006,06,29,17,04,21.00
2006,06,29,17,05,21.00
2006,06,29,17,06,21.00
2006,06,29,17,07,20.90
2006,06,29,17,08,20.90
2006,06,29,17,09,20.90
2006,06,29,17,10,20.90
2006,06,29,17,11,21.00
2006,06,29,17,12,21.00
2006,06,29,17,13,21.10
2006,06,29,17,14,21.10
2006,06,29,17,15,21.10
2006,06,29,17,16,21.20
2006,06,29,17,17,21.30
2006,06,29,17,18,21.30
2006,06,29,17,19,21.40
2006,06,29,17,20,21.40
2006,06,29,17,21,21.30
2006,06,29,17,22,21.20
2006,06,29,17,23,21.20
2006,06,29,17,24,21.00
2006,06,29,17,25,21.00
2006,06,29,17,26,20.80
2006,06,29,17,27,20.60
2006,06,29,17,28,20.50
2006,06,29,17,29,20.40
2006,06,29,17,30,20.40
2006,06,29,17,31,20.20
2006,06,29,17,32,20.20
2006,06,29,17,33,20.20
2006,06,29,17,34,20.20
2006,06,29,17,35,20.20
2006,06,29,17,36,20.20
2006,06,29,17,37,20.20
2006,06,29,17,38,20.20
2006,06,29,17,39,20.10
2006,06,29,17,40,20.10
2006,06,29,17,41,20.10
2006,06,29,17,42,20.10
2006,06,29,17,43,20.10
2006,06,29,17,44,20.10
2006,06,29,17,45,20.00
2006,06,29,17,46,19.90
2006,06,29,17,47,19.90
2006,06,29,17,48,19.90
2006,06,29,17,49,19.90
2006,06,29,17,50,20.00
2006,06,29,17,51,20.10
2006,06,29,17,52,20.20
2006,06,29,17,53,20.20
2006,06,29,17,54,20.20
2006,06,29,17,55,20.20
2006,06,29,17,56,20.20
2006,06,29,17,57,20.10
2006,06,29,17,58,20.10
2006,06,29,17,59,20.10
2006,06,29,18,00,20.20
2006,06,29,18,01,20.20
2006,06,29,18,02,20.20
2006,06,29,18,03,20.20
2006,06,29,18,04,20.20
2006,06,29,18,05,20.20
2006,06,29,18,06,20.20
2006,06,29,18,07,20.20
2006,06,29,18,08,20.20